Location: Unspecified
(0.0000°N, 0.0000°E)
Time: 14:20:23
(UTC+00:00)

Envisat - Pass Details

Date: 29 October 2021
Orbit: 764 x 766 km, 98.2° (Epoch: 29 November)

Event Time Altitude Azimuth Distance (km) Brightness Sun altitude
Rises 04:43:54 0° 10° (N) 3,212 6.2 -14.5°
Reaches altitude 10° 04:46:12 10° 9° (N) 2,289 5.4 -14.0°
Maximum altitude 04:51:15 80° 282° (WNW) 777 2.9 -12.8°
Drops below altitude 10° 04:56:19 10° 195° (SSW) 2,299 5.5 -11.5°
Sets 04:58:37 0° 194° (SSW) 3,227 6.2 -11.0°
